Time,TemperatureF,DewpointF,PressureIn,WindDirection,WindDirectionDegrees,WindSpeedMPH,WindSpeedGustMPH,Humidity,HourlyPrecipIn,Conditions,Clouds,dailyrainin,SoftwareType,DateUTC
2013-11-27 03:29:00,15.8,11.0,29.90,NNW,340,1.0,11.0,82,0.00,,,0.00,weatherlink.com 1.10,2013-11-27 08:29:00,
2013-11-27 03:37:00,15.3,11.0,29.90,NW,311,6.0,11.0,83,0.00,,,0.00,weatherlink.com 1.10,2013-11-27 08:37:00,
2013-11-27 03:52:00,14.6,10.0,29.91,NNW,338,10.0,14.0,81,0.00,,,0.00,weatherlink.com 1.10,2013-11-27 08:52:00,
2013-11-27 04:07:00,14.1,10.0,29.91,NNW,332,6.0,14.0,82,0.00,,,0.00,weatherlink.com 1.10,2013-11-27 09:07:00,
2013-11-27 04:22:00,13.6,9.0,29.91,North,7,4.0,11.0,83,0.00,,,0.00,weatherlink.com 1.10,2013-11-27 09:22:00,
2013-11-27 04:37:00,13.1,9.0,29.91,NW,314,8.0,11.0,84,0.00,,,0.00,weatherlink.com 1.10,2013-11-27 09:37:00,
2013-11-27 04:52:00,12.8,9.0,29.92,NW,307,6.0,14.0,83,0.00,,,0.00,weatherlink.com 1.10,2013-11-27 09:52:00,
2013-11-27 05:07:00,12.3,8.0,29.92,WNW,287,4.0,8.0,84,0.00,,,0.00,weatherlink.com 1.10,2013-11-27 10:07:00,
2013-11-27 05:22:00,12.1,8.0,29.93,NW,321,6.0,13.0,83,0.00,,,0.00,weatherlink.com 1.10,2013-11-27 10:22:00,
2013-11-27 05:38:00,12.1,7.0,29.93,NW,316,2.0,12.0,81,0.00,,,0.00,weatherlink.com 1.10,2013-11-27 10:38:00,
2013-11-27 05:53:00,11.9,7.0,29.93,NNW,344,9.0,14.0,81,0.00,,,0.00,weatherlink.com 1.10,2013-11-27 10:53:00,
2013-11-27 06:08:00,11.8,7.0,29.94,NW,316,6.0,10.0,80,0.00,,,0.00,weatherlink.com 1.10,2013-11-27 11:08:00,
2013-11-27 06:23:00,10.6,6.0,29.95,NNW,330,5.0,9.0,82,0.00,,,0.00,weatherlink.com 1.10,2013-11-27 11:23:00,
2013-11-27 06:38:00,9.6,5.0,29.96,NW,310,1.0,8.0,83,0.00,,,0.00,weatherlink.com 1.10,2013-11-27 11:38:00,
2013-11-27 06:53:00,9.6,6.0,29.96,WNW,293,3.0,6.0,84,0.00,,,0.00,weatherlink.com 1.10,2013-11-27 11:53:00,
2013-11-27 07:08:00,9.6,6.0,29.96,WNW,291,4.0,5.0,84,0.00,,,0.00,weatherlink.com 1.10,2013-11-27 12:08:00,
2013-11-27 07:23:00,9.2,5.0,29.97,West,276,0.0,5.0,84,0.00,,,0.00,weatherlink.com 1.10,2013-11-27 12:23:00,
2013-11-27 07:38:00,9.1,6.0,29.97,WNW,284,4.0,8.0,85,0.00,,,0.00,weatherlink.com 1.10,2013-11-27 12:38:00,
2013-11-27 07:53:00,9.9,6.0,29.97,NW,312,2.0,6.0,84,0.00,,,0.00,weatherlink.com 1.10,2013-11-27 12:53:00,
2013-11-27 08:08:00,10.8,7.0,29.98,WNW,284,1.0,7.0,83,0.00,,,0.00,weatherlink.com 1.10,2013-11-27 13:08:00,
2013-11-27 08:23:00,12.3,8.0,29.98,NNW,335,2.0,8.0,81,0.00,,,0.00,weatherlink.com 1.10,2013-11-27 13:23:00,
2013-11-27 08:38:00,12.9,8.0,29.98,West,274,1.0,5.0,80,0.00,,,0.00,weatherlink.com 1.10,2013-11-27 13:38:00,
2013-11-27 08:53:00,13.6,8.0,29.99,WNW,295,3.0,6.0,79,0.00,,,0.00,weatherlink.com 1.10,2013-11-27 13:53:00,
2013-11-27 09:08:00,14.6,9.0,29.99,NNW,329,1.0,7.0,78,0.00,,,0.00,weatherlink.com 1.10,2013-11-27 14:08:00,
2013-11-27 09:23:00,15.7,9.0,29.99,WNW,298,3.0,10.0,76,0.00,,,0.00,weatherlink.com 1.10,2013-11-27 14:23:00,
2013-11-27 09:38:00,16.7,10.0,29.98,NNW,331,5.0,11.0,75,0.00,,,0.00,weatherlink.com 1.10,2013-11-27 14:38:00,
2013-11-27 09:53:00,17.4,10.0,29.99,NW,323,3.0,13.0,73,0.00,,,0.00,weatherlink.com 1.10,2013-11-27 14:53:00,
2013-11-27 10:08:00,17.8,10.0,29.99,NNW,327,9.0,13.0,72,0.00,,,0.00,weatherlink.com 1.10,2013-11-27 15:08:00,
2013-11-27 10:23:00,18.2,10.0,29.99,West,276,4.0,22.0,71,0.00,,,0.00,weatherlink.com 1.10,2013-11-27 15:23:00,
2013-11-27 10:38:00,18.7,10.0,29.99,NNW,337,19.0,20.0,70,0.00,,,0.00,weatherlink.com 1.10,2013-11-27 15:38:00,
2013-11-27 10:53:00,18.9,10.0,29.99,NNW,338,11.0,17.0,69,0.00,,,0.00,weatherlink.com 1.10,2013-11-27 15:53:00,
2013-11-27 11:08:00,19.0,10.0,29.98,NW,304,6.0,23.0,67,0.00,,,0.00,weatherlink.com 1.10,2013-11-27 16:08:00,
2013-11-27 11:23:00,19.5,11.0,29.98,NNW,333,19.0,21.0,68,0.00,,,0.00,weatherlink.com 1.10,2013-11-27 16:23:00,
2013-11-27 11:38:00,19.6,11.0,29.98,NNW,343,11.0,23.0,68,0.00,,,0.00,weatherlink.com 1.10,2013-11-27 16:38:00,
2013-11-27 11:53:00,19.9,11.0,29.98,North,5,9.0,18.0,67,0.00,,,0.00,weatherlink.com 1.10,2013-11-27 16:53:00,
2013-11-27 12:08:00,20.6,11.0,29.98,NW,318,9.0,18.0,66,0.00,,,0.00,weatherlink.com 1.10,2013-11-27 17:08:00,
2013-11-27 12:24:00,20.4,10.0,29.96,NNE,27,13.0,23.0,64,0.00,,,0.00,weatherlink.com 1.10,2013-11-27 17:24:00,
2013-11-27 12:38:00,20.5,10.0,29.96,NNE,13,8.0,20.0,64,0.00,,,0.00,weatherlink.com 1.10,2013-11-27 17:38:00,
2013-11-27 12:53:00,21.0,10.0,29.96,North,5,15.0,24.0,63,0.00,,,0.00,weatherlink.com 1.10,2013-11-27 17:53:00,
2013-11-27 13:08:00,21.3,11.0,29.95,NW,308,11.0,22.0,64,0.00,,,0.00,weatherlink.com 1.10,2013-11-27 18:08:00,
2013-11-27 13:23:00,20.6,9.0,29.96,NNW,334,13.0,23.0,61,0.00,,,0.00,weatherlink.com 1.10,2013-11-27 18:23:00,
2013-11-27 13:38:00,21.4,12.0,29.95,NNW,340,16.0,25.0,66,0.00,,,0.00,weatherlink.com 1.10,2013-11-27 18:38:00,
2013-11-27 13:53:00,21.5,10.0,29.96,NW,304,7.0,18.0,62,0.00,,,0.00,weatherlink.com 1.10,2013-11-27 18:53:00,
2013-11-27 14:08:00,21.1,9.0,29.95,NNW,343,16.0,23.0,59,0.00,,,0.00,weatherlink.com 1.10,2013-11-27 19:08:00,
2013-11-27 14:23:00,21.3,10.0,29.96,North,353,11.0,21.0,62,0.00,,,0.00,weatherlink.com 1.10,2013-11-27 19:23:00,
2013-11-27 14:38:00,21.7,9.0,29.96,North,355,7.0,23.0,59,0.00,,,0.00,weatherlink.com 1.10,2013-11-27 19:38:00,
2013-11-27 14:53:00,21.1,10.0,29.96,NW,311,7.0,22.0,63,0.00,,,0.00,weatherlink.com 1.10,2013-11-27 19:53:00,
2013-11-27 15:08:00,21.1,10.0,29.96,NNW,340,14.0,23.0,62,0.00,,,0.00,weatherlink.com 1.10,2013-11-27 20:08:00,
2013-11-27 15:23:00,20.7,9.0,29.97,North,355,8.0,18.0,62,0.00,,,0.00,weatherlink.com 1.10,2013-11-27 20:23:00,
2013-11-27 15:38:00,21.0,10.0,29.97,North,360,11.0,16.0,63,0.00,,,0.00,weatherlink.com 1.10,2013-11-27 20:38:00,
2013-11-27 16:08:00,20.6,9.0,29.98,NNW,336,13.0,19.0,62,0.00,,,0.00,weatherlink.com 1.10,2013-11-27 21:08:00,
2013-11-27 16:23:00,20.4,9.0,29.99,North,1,8.0,12.0,62,0.00,,,0.00,weatherlink.com 1.10,2013-11-27 21:23:00,
2013-11-27 16:39:00,20.0,9.0,29.99,NNW,342,3.0,13.0,62,0.00,,,0.00,weatherlink.com 1.10,2013-11-27 21:39:00,
2013-11-27 16:54:00,19.4,9.0,30.00,NW,316,4.0,8.0,63,0.00,,,0.00,weatherlink.com 1.10,2013-11-27 21:54:00,
2013-11-27 17:09:00,19.4,9.0,30.00,NNW,328,8.0,15.0,64,0.00,,,0.00,weatherlink.com 1.10,2013-11-27 22:09:00,
2013-11-27 17:24:00,19.3,9.0,30.01,NW,317,2.0,13.0,63,0.00,,,0.00,weatherlink.com 1.10,2013-11-27 22:24:00,
2013-11-27 17:39:00,18.5,8.0,30.02,WNW,302,2.0,5.0,65,0.00,,,0.00,weatherlink.com 1.10,2013-11-27 22:39:00,
2013-11-27 17:54:00,18.1,8.0,30.03,West,281,3.0,6.0,66,0.00,,,0.00,weatherlink.com 1.10,2013-11-27 22:54:00,
2013-11-27 18:09:00,17.4,8.0,30.03,NW,310,2.0,5.0,67,0.00,,,0.00,weatherlink.com 1.10,2013-11-27 23:09:00,
2013-11-27 18:24:00,17.2,8.0,30.04,NW,310,2.0,9.0,68,0.00,,,0.00,weatherlink.com 1.10,2013-11-27 23:24:00,
2013-11-27 18:40:00,17.1,9.0,30.04,NW,306,5.0,10.0,69,0.00,,,0.00,weatherlink.com 1.10,2013-11-27 23:40:00,
2013-11-27 18:54:00,17.8,9.0,30.05,NNE,13,4.0,14.0,69,0.00,,,0.00,weatherlink.com 1.10,2013-11-27 23:54:00,
2013-11-27 19:09:00,17.6,9.0,30.05,SW,228,1.0,10.0,70,0.00,,,0.00,weatherlink.com 1.10,2013-11-28 00:09:00,
2013-11-27 19:24:00,16.6,9.0,30.05,West,273,2.0,3.0,72,0.00,,,0.00,weatherlink.com 1.10,2013-11-28 00:24:00,
2013-11-27 19:38:00,16.6,9.0,30.05,NNW,343,6.0,9.0,71,0.00,,,0.00,weatherlink.com 1.10,2013-11-28 00:38:00,
2013-11-27 19:53:00,16.0,8.0,30.06,WNW,300,2.0,3.0,72,0.00,,,0.00,weatherlink.com 1.10,2013-11-28 00:53:00,
2013-11-27 20:08:00,15.8,9.0,30.06,NNE,27,6.0,11.0,73,0.00,,,0.00,weatherlink.com 1.10,2013-11-28 01:08:00,
2013-11-27 20:23:00,15.9,8.0,30.06,NW,321,0.0,11.0,72,0.00,,,0.00,weatherlink.com 1.10,2013-11-28 01:23:00,
2013-11-27 20:38:00,15.6,8.0,30.07,NNW,338,8.0,9.0,72,0.00,,,0.00,weatherlink.com 1.10,2013-11-28 01:38:00,
2013-11-27 20:53:00,15.4,8.0,30.07,NW,315,2.0,10.0,72,0.00,,,0.00,weatherlink.com 1.10,2013-11-28 01:53:00,
2013-11-27 21:08:00,14.9,8.0,30.07,West,271,2.0,9.0,73,0.00,,,0.00,weatherlink.com 1.10,2013-11-28 02:08:00,
2013-11-27 21:23:00,14.6,8.0,30.07,North,1,3.0,5.0,74,0.00,,,0.00,weatherlink.com 1.10,2013-11-28 02:23:00,
2013-11-27 21:38:00,13.6,7.0,30.07,WNW,299,2.0,4.0,76,0.00,,,0.00,weatherlink.com 1.10,2013-11-28 02:38:00,
2013-11-27 21:53:00,12.8,7.0,30.07,WNW,301,0.0,3.0,78,0.00,,,0.00,weatherlink.com 1.10,2013-11-28 02:53:00,
2013-11-27 22:08:00,11.9,7.0,30.07,WSW,255,1.0,4.0,79,0.00,,,0.00,weatherlink.com 1.10,2013-11-28 03:08:00,
2013-11-27 22:23:00,11.0,6.0,30.08,WSW,252,1.0,2.0,81,0.00,,,0.00,weatherlink.com 1.10,2013-11-28 03:23:00,
2013-11-27 22:38:00,10.4,6.0,30.08,WSW,256,0.0,2.0,81,0.00,,,0.00,weatherlink.com 1.10,2013-11-28 03:38:00,
2013-11-27 22:53:00,9.8,5.0,30.08,WSW,248,1.0,2.0,82,0.00,,,0.00,weatherlink.com 1.10,2013-11-28 03:53:00,
2013-11-27 23:08:00,9.5,5.0,30.08,WNW,293,1.0,3.0,83,0.00,,,0.00,weatherlink.com 1.10,2013-11-28 04:08:00,
2013-11-27 23:23:00,9.3,5.0,30.09,West,259,1.0,5.0,82,0.00,,,0.00,weatherlink.com 1.10,2013-11-28 04:23:00,
2013-11-27 23:38:00,8.8,5.0,30.09,West,266,0.0,4.0,84,0.00,,,0.00,weatherlink.com 1.10,2013-11-28 04:38:00,
2013-11-27 23:53:00,9.1,5.0,30.09,WSW,252,0.0,3.0,83,0.00,,,0.00,weatherlink.com 1.10,2013-11-28 04:53:00,